User: anonymous   Login
Location: Unspecified
(0.0000°N, 0.0000°E)
Time: 07:47:47
(UTC+00:00)
Language:

Explorer 7 - Orbit

View from above orbital plane
View from above orbital plane
View from above satellite
View from above satellite

Ground track
Ground track

The orbit data is extracted from the following two-line orbital elements,

1 00022U 59009A   18112.81732221  .00000293  00000-0  45588-4 0  9994
2 00022  50.2836 191.2612 0141059 134.7351 226.5180 14.94530807107650
Epoch (UTC): 22 April 2018 19:36:56
Eccentricity: 0.0141059
inclination: 50.2836°
perigee height: 485 km
apogee height: 682 km
right ascension of ascending node: 191.2612°
argument of perigee: 134.7351°
revolutions per day: 14.94530807
mean anomaly at epoch: 226.5180°
orbit number at epoch: 10765

The dashed part of the orbit path shows where the satellite is in the earth's shadow,  

DLR